Time,TemperatureF,DewpointF,PressureIn,WindDirection,WindDirectionDegrees,WindSpeedMPH,WindSpeedGustMPH,Humidity,HourlyPrecipIn,Conditions,Clouds,dailyrainin,SoftwareType,DateUTC
2013-01-25 00:00:00,9.8,-6.4,30.17,NNW,338,6.0,20.0,47,0.00,,,-99.99,Weather View 32 v60,2013-01-25 05:00:00,
2013-01-25 00:05:00,9.8,-6.4,30.18,NNW,338,4.0,19.0,47,0.00,,,-99.99,Weather View 32 v60,2013-01-25 05:05:00,
2013-01-25 00:10:00,9.7,-6.5,30.18,WNW,293,0.0,14.0,47,0.00,,,-99.99,Weather View 32 v60,2013-01-25 05:10:00,
2013-01-25 00:15:00,9.7,-6.5,30.18,WNW,293,0.0,14.0,47,0.00,,,-99.99,Weather View 32 v60,2013-01-25 05:15:00,
2013-01-25 00:20:00,9.6,-6.6,30.18,WNW,293,4.0,14.0,47,0.00,,,-99.99,Weather View 32 v60,2013-01-25 05:20:00,
2013-01-25 00:25:00,9.5,-6.2,30.18,NW,315,6.0,13.0,48,0.00,,,-99.99,Weather View 32 v60,2013-01-25 05:25:00,
2013-01-25 00:30:00,9.5,-6.2,30.19,WSW,248,0.0,12.0,48,0.00,,,-99.99,Weather View 32 v60,2013-01-25 05:30:00,
2013-01-25 00:35:00,9.4,-6.3,30.19,WNW,293,0.0,12.0,48,0.00,,,-99.99,Weather View 32 v60,2013-01-25 05:35:00,
2013-01-25 00:40:00,9.3,-6.4,30.19,NW,315,4.0,12.0,48,0.00,,,-99.99,Weather View 32 v60,2013-01-25 05:40:00,
2013-01-25 00:45:00,9.3,-6.4,30.19,WNW,293,4.0,12.0,48,0.00,,,-99.99,Weather View 32 v60,2013-01-25 05:45:00,
2013-01-25 00:50:00,9.3,-6.0,30.20,WNW,293,3.0,12.0,49,0.00,,,-99.99,Weather View 32 v60,2013-01-25 05:50:00,
2013-01-25 00:55:00,9.2,-6.5,30.19,NW,315,7.0,14.0,48,0.00,,,-99.99,Weather View 32 v60,2013-01-25 05:55:00,
2013-01-25 01:00:00,9.1,-6.2,30.19,NW,315,2.0,14.0,49,0.00,,,-99.99,Weather View 32 v60,2013-01-25 06:00:00,
2013-01-25 01:05:00,9.2,-6.1,30.19,WNW,293,4.0,14.0,49,0.00,,,-99.99,Weather View 32 v60,2013-01-25 06:05:00,
2013-01-25 01:10:00,9.1,-6.2,30.19,WNW,293,4.0,14.0,49,0.00,,,-99.99,Weather View 32 v60,2013-01-25 06:10:00,
2013-01-25 01:15:00,9.1,-6.2,30.19,NW,315,4.0,14.0,49,0.00,,,-99.99,Weather View 32 v60,2013-01-25 06:15:00,
2013-01-25 01:20:00,9.0,-5.9,30.19,NW,315,4.0,14.0,50,0.00,,,-99.99,Weather View 32 v60,2013-01-25 06:20:00,
2013-01-25 01:25:00,9.1,-5.8,30.19,North,0,4.0,16.0,50,0.00,,,-99.99,Weather View 32 v60,2013-01-25 06:25:00,
2013-01-25 01:30:00,9.1,-5.8,30.19,WNW,293,6.0,16.0,50,0.00,,,-99.99,Weather View 32 v60,2013-01-25 06:30:00,
2013-01-25 01:35:00,9.0,-5.9,30.20,West,270,4.0,16.0,50,0.00,,,-99.99,Weather View 32 v60,2013-01-25 06:35:00,
2013-01-25 01:40:00,9.0,-5.9,30.20,NW,315,1.0,16.0,50,0.00,,,-99.99,Weather View 32 v60,2013-01-25 06:40:00,
2013-01-25 01:45:00,9.0,-5.4,30.20,NNW,338,7.0,16.0,51,0.00,,,-99.99,Weather View 32 v60,2013-01-25 06:45:00,
2013-01-25 01:50:00,9.0,-5.4,30.20,NW,315,3.0,16.0,51,0.00,,,-99.99,Weather View 32 v60,2013-01-25 06:50:00,
2013-01-25 01:55:00,8.9,-5.5,30.20,West,270,4.0,16.0,51,0.00,,,-99.99,Weather View 32 v60,2013-01-25 06:55:00,
2013-01-25 02:00:00,8.9,-5.9,30.20,NW,315,6.0,16.0,50,0.00,,,-99.99,Weather View 32 v60,2013-01-25 07:00:00,
2013-01-25 02:05:00,8.9,-5.5,30.20,WNW,293,4.0,16.0,51,0.00,,,-99.99,Weather View 32 v60,2013-01-25 07:05:00,
2013-01-25 02:10:00,9.0,-5.4,30.20,WNW,293,6.0,16.0,51,0.00,,,-99.99,Weather View 32 v60,2013-01-25 07:10:00,
2013-01-25 02:15:00,8.9,-5.9,30.20,NNE,23,3.0,16.0,50,0.00,,,-99.99,Weather View 32 v60,2013-01-25 07:15:00,
2013-01-25 02:20:00,8.9,-5.5,30.20,WNW,293,4.0,16.0,51,0.00,,,-99.99,Weather View 32 v60,2013-01-25 07:20:00,
2013-01-25 02:25:00,8.9,-5.5,30.21,North,0,3.0,16.0,51,0.00,,,-99.99,Weather View 32 v60,2013-01-25 07:25:00,
2013-01-25 02:30:00,8.9,-5.5,30.21,NW,315,3.0,16.0,51,0.00,,,-99.99,Weather View 32 v60,2013-01-25 07:30:00,
2013-01-25 02:35:00,8.9,-5.5,30.20,WNW,293,6.0,16.0,51,0.00,,,-99.99,Weather View 32 v60,2013-01-25 07:35:00,
2013-01-25 02:40:00,8.9,-5.5,30.20,WNW,293,6.0,16.0,51,0.00,,,-99.99,Weather View 32 v60,2013-01-25 07:40:00,
2013-01-25 02:45:00,8.8,-5.6,30.20,NW,315,3.0,16.0,51,0.00,,,-99.99,Weather View 32 v60,2013-01-25 07:45:00,
2013-01-25 02:50:00,8.8,-5.6,30.21,WNW,293,7.0,16.0,51,0.00,,,-99.99,Weather View 32 v60,2013-01-25 07:50:00,
2013-01-25 02:55:00,8.8,-5.6,30.20,WNW,293,6.0,16.0,51,0.00,,,-99.99,Weather View 32 v60,2013-01-25 07:55:00,
2013-01-25 03:00:00,8.8,-5.6,30.20,WNW,293,4.0,16.0,51,0.00,,,-99.99,Weather View 32 v60,2013-01-25 08:00:00,
2013-01-25 03:05:00,8.7,-5.7,30.21,NNW,338,6.0,16.0,51,0.00,,,-99.99,Weather View 32 v60,2013-01-25 08:05:00,
2013-01-25 03:10:00,8.7,-6.1,30.21,WNW,293,3.0,16.0,50,0.00,,,-99.99,Weather View 32 v60,2013-01-25 08:10:00,
2013-01-25 03:15:00,8.7,-6.1,30.21,NNW,338,0.0,15.0,50,0.00,,,-99.99,Weather View 32 v60,2013-01-25 08:15:00,
2013-01-25 03:20:00,8.7,-5.7,30.21,WNW,293,5.0,15.0,51,0.00,,,-99.99,Weather View 32 v60,2013-01-25 08:20:00,
2013-01-25 03:25:00,8.7,-6.1,30.21,NW,315,6.0,15.0,50,0.00,,,-99.99,Weather View 32 v60,2013-01-25 08:25:00,
2013-01-25 03:30:00,8.7,-6.1,30.21,NW,315,1.0,15.0,50,0.00,,,-99.99,Weather View 32 v60,2013-01-25 08:30:00,
2013-01-25 03:35:00,8.7,-6.1,30.21,SSE,158,3.0,15.0,50,0.00,,,-99.99,Weather View 32 v60,2013-01-25 08:35:00,
2013-01-25 03:40:00,8.7,-6.1,30.21,WNW,293,0.0,15.0,50,0.00,,,-99.99,Weather View 32 v60,2013-01-25 08:40:00,
2013-01-25 03:45:00,8.6,-5.8,30.21,West,270,0.0,15.0,51,0.00,,,-99.99,Weather View 32 v60,2013-01-25 08:45:00,
2013-01-25 03:50:00,8.5,-5.9,30.22,NNW,338,4.0,15.0,51,0.00,,,-99.99,Weather View 32 v60,2013-01-25 08:50:00,
2013-01-25 03:55:00,8.5,-5.9,30.22,WSW,248,0.0,9.0,51,0.00,,,-99.99,Weather View 32 v60,2013-01-25 08:55:00,
2013-01-25 04:00:00,8.4,-6.0,30.22,WSW,248,0.0,9.0,51,0.00,,,-99.99,Weather View 32 v60,2013-01-25 09:00:00,
2013-01-25 04:05:00,8.3,-5.7,30.22,West,270,0.0,9.0,52,0.00,,,-99.99,Weather View 32 v60,2013-01-25 09:05:00,
2013-01-25 04:10:00,8.3,-5.7,30.22,West,270,0.0,9.0,52,0.00,,,-99.99,Weather View 32 v60,2013-01-25 09:10:00,
2013-01-25 04:15:00,8.2,-5.8,30.22,West,270,0.0,9.0,52,0.00,,,-99.99,Weather View 32 v60,2013-01-25 09:15:00,
2013-01-25 04:20:00,8.1,-5.5,30.23,SW,225,0.0,9.0,53,0.00,,,-99.99,Weather View 32 v60,2013-01-25 09:20:00,
2013-01-25 04:30:00,7.9,-5.7,30.23,WSW,248,0.0,8.0,53,0.00,,,-99.99,Weather View 32 v60,2013-01-25 09:30:00,
2013-01-25 04:50:00,7.6,-5.6,30.22,WNW,293,0.0,6.0,54,0.00,,,-99.99,Weather View 32 v60,2013-01-25 09:50:00,
2013-01-25 04:55:00,7.6,-5.6,30.22,WSW,248,0.0,5.0,54,0.00,,,-99.99,Weather View 32 v60,2013-01-25 09:55:00,
2013-01-25 05:00:00,7.5,-5.3,30.22,West,270,0.0,5.0,55,0.00,,,-99.99,Weather View 32 v60,2013-01-25 10:00:00,
2013-01-25 05:05:00,7.5,-5.3,30.22,WSW,248,0.0,5.0,55,0.00,,,-99.99,Weather View 32 v60,2013-01-25 10:05:00,
2013-01-25 05:10:00,7.4,-5.4,30.22,WNW,293,3.0,5.0,55,0.00,,,-99.99,Weather View 32 v60,2013-01-25 10:10:00,
2013-01-25 05:15:00,7.4,-5.4,30.23,SW,225,0.0,5.0,55,0.00,,,-99.99,Weather View 32 v60,2013-01-25 10:15:00,
2013-01-25 05:25:00,8.0,-5.6,30.23,SW,225,0.0,9.0,53,0.00,,,-99.99,Weather View 32 v60,2013-01-25 10:25:00,
2013-01-25 05:34:00,7.8,-5.8,30.23,West,270,0.0,8.0,53,0.00,,,-99.99,Weather View 32 v60,2013-01-25 10:34:00,
2013-01-25 05:40:00,7.6,-6.0,30.23,NW,315,0.0,8.0,53,0.00,,,-99.99,Weather View 32 v60,2013-01-25 10:40:00,
2013-01-25 05:45:00,7.6,-5.6,30.23,WNW,293,0.0,6.0,54,0.00,,,-99.99,Weather View 32 v60,2013-01-25 10:45:00,
2013-01-25 05:55:00,7.3,-5.1,30.22,WSW,248,0.0,5.0,56,0.00,,,-99.99,Weather View 32 v60,2013-01-25 10:55:00,
2013-01-25 06:20:00,7.3,-5.5,30.22,SSW,203,0.0,5.0,55,0.00,,,-99.99,Weather View 32 v60,2013-01-25 11:20:00,
2013-01-25 06:25:00,7.2,-5.6,30.22,SSW,203,2.0,5.0,55,0.00,,,-99.99,Weather View 32 v60,2013-01-25 11:25:00,
2013-01-25 06:34:00,7.2,-5.2,30.22,West,270,0.0,5.0,56,0.00,,,-99.99,Weather View 32 v60,2013-01-25 11:34:00,
2013-01-25 06:40:00,7.3,-5.1,30.22,WNW,293,0.0,5.0,56,0.00,,,-99.99,Weather View 32 v60,2013-01-25 11:40:00,
2013-01-25 06:49:00,7.3,-5.1,30.22,WNW,293,0.0,5.0,56,0.00,,,-99.99,Weather View 32 v60,2013-01-25 11:49:00,
2013-01-25 07:00:00,7.4,-4.6,30.22,West,270,0.0,5.0,57,0.00,,,-99.99,Weather View 32 v60,2013-01-25 12:00:00,
2013-01-25 07:09:00,7.4,-4.6,30.22,West,270,0.0,5.0,57,0.00,,,-99.99,Weather View 32 v60,2013-01-25 12:09:00,
2013-01-25 07:15:00,7.4,-4.6,30.22,WNW,293,0.0,5.0,57,0.00,,,-99.99,Weather View 32 v60,2013-01-25 12:15:00,
2013-01-25 07:30:00,7.5,-4.5,30.23,WNW,293,0.0,5.0,57,0.00,,,-99.99,Weather View 32 v60,2013-01-25 12:30:00,
2013-01-25 07:35:00,7.6,-4.4,30.23,West,270,0.0,5.0,57,0.00,,,-99.99,Weather View 32 v60,2013-01-25 12:35:00,
2013-01-25 07:40:00,7.7,-4.4,30.23,NW,315,2.0,5.0,57,0.00,,,-99.99,Weather View 32 v60,2013-01-25 12:40:00,
2013-01-25 07:50:00,8.1,-4.0,30.22,NW,315,3.0,7.0,57,0.00,,,-99.99,Weather View 32 v60,2013-01-25 12:50:00,
2013-01-25 07:55:00,8.3,-4.2,30.23,NNW,338,4.0,7.0,56,0.00,,,-99.99,Weather View 32 v60,2013-01-25 12:55:00,
2013-01-25 08:05:00,8.7,-4.2,30.23,WNW,293,3.0,7.0,55,0.00,,,-99.99,Weather View 32 v60,2013-01-25 13:05:00,
2013-01-25 08:15:00,9.0,-4.3,30.23,NNW,338,4.0,11.0,54,0.00,,,-99.99,Weather View 32 v60,2013-01-25 13:15:00,
2013-01-25 08:25:00,9.5,-4.2,30.24,WNW,293,5.0,13.0,53,0.00,,,-99.99,Weather View 32 v60,2013-01-25 13:25:00,
2013-01-25 08:30:00,9.7,-4.4,30.24,WNW,293,5.0,16.0,52,0.00,,,-99.99,Weather View 32 v60,2013-01-25 13:30:00,
2013-01-25 08:40:00,10.1,-4.4,30.23,WNW,293,5.0,16.0,51,0.00,,,-99.99,Weather View 32 v60,2013-01-25 13:40:00,
2013-01-25 08:49:00,10.6,-4.4,30.23,NW,315,9.0,21.0,50,0.00,,,-99.99,Weather View 32 v60,2013-01-25 13:49:00,
2013-01-25 08:55:00,10.9,-4.5,30.24,NW,315,6.0,21.0,49,0.00,,,-99.99,Weather View 32 v60,2013-01-25 13:55:00,
2013-01-25 09:04:00,11.6,-3.9,30.24,NNW,338,4.0,21.0,49,0.00,,,-99.99,Weather View 32 v60,2013-01-25 14:04:00,
2013-01-25 09:10:00,12.0,-3.5,30.23,North,0,9.0,21.0,49,0.00,,,-99.99,Weather View 32 v60,2013-01-25 14:10:00,
2013-01-25 09:15:00,12.4,-3.1,30.23,WNW,293,6.0,21.0,49,0.00,,,-99.99,Weather View 32 v60,2013-01-25 14:15:00,
2013-01-25 09:20:00,12.7,-3.3,30.24,NW,315,7.0,21.0,48,0.00,,,-99.99,Weather View 32 v60,2013-01-25 14:20:00,
2013-01-25 09:30:00,13.2,-3.3,30.24,NNW,338,6.0,21.0,47,0.00,,,-99.99,Weather View 32 v60,2013-01-25 14:30:00,
2013-01-25 09:40:00,13.7,-3.2,30.24,North,0,6.0,21.0,46,0.00,,,-99.99,Weather View 32 v60,2013-01-25 14:40:00,
2013-01-25 09:49:00,14.2,-2.8,30.25,NNW,338,2.0,16.0,46,0.00,,,-99.99,Weather View 32 v60,2013-01-25 14:49:00,
2013-01-25 09:55:00,14.5,-3.0,30.24,North,0,7.0,16.0,45,0.00,,,-99.99,Weather View 32 v60,2013-01-25 14:55:00,
2013-01-25 10:00:00,14.6,-2.9,30.24,NNW,338,6.0,16.0,45,0.00,,,-99.99,Weather View 32 v60,2013-01-25 15:00:00,
2013-01-25 10:09:00,15.1,-2.4,30.24,NW,315,4.0,16.0,45,0.00,,,-99.99,Weather View 32 v60,2013-01-25 15:09:00,
2013-01-25 10:15:00,15.2,-2.8,30.24,NW,315,7.0,16.0,44,0.00,,,-99.99,Weather View 32 v60,2013-01-25 15:15:00,
2013-01-25 10:25:00,15.3,-3.2,30.24,WNW,293,4.0,16.0,43,0.00,,,-99.99,Weather View 32 v60,2013-01-25 15:25:00,
2013-01-25 10:30:00,15.6,-2.4,30.23,WNW,293,3.0,16.0,44,0.00,,,-99.99,Weather View 32 v60,2013-01-25 15:30:00,
2013-01-25 10:40:00,16.4,-2.2,30.24,WNW,293,3.0,16.0,43,0.00,,,-99.99,Weather View 32 v60,2013-01-25 15:40:00,
2013-01-25 10:50:00,16.9,-1.7,30.23,NW,315,2.0,16.0,43,0.00,,,-99.99,Weather View 32 v60,2013-01-25 15:50:00,
2013-01-25 10:55:00,17.1,-2.0,30.23,NNW,338,4.0,16.0,42,0.00,,,-99.99,Weather View 32 v60,2013-01-25 15:55:00,
2013-01-25 11:00:00,17.4,-1.8,30.22,WNW,293,4.0,16.0,42,0.00,,,-99.99,Weather View 32 v60,2013-01-25 16:00:00,
2013-01-25 11:09:00,17.9,-1.3,30.21,WNW,293,2.0,15.0,42,0.00,,,-99.99,Weather View 32 v60,2013-01-25 16:09:00,
2013-01-25 11:15:00,18.2,-1.6,30.21,WNW,293,5.0,17.0,41,0.00,,,-99.99,Weather View 32 v60,2013-01-25 16:15:00,
2013-01-25 11:25:00,18.6,-1.2,30.20,NNW,338,8.0,17.0,41,0.00,,,-99.99,Weather View 32 v60,2013-01-25 16:25:00,
2013-01-25 11:34:00,18.9,-1.4,30.20,NNW,338,3.0,17.0,40,0.00,,,-99.99,Weather View 32 v60,2013-01-25 16:34:00,
2013-01-25 11:40:00,19.1,-1.3,30.19,WSW,248,2.0,17.0,40,0.00,,,-99.99,Weather View 32 v60,2013-01-25 16:40:00,
2013-01-25 11:50:00,19.6,-0.8,30.19,NW,315,5.0,17.0,40,0.00,,,-99.99,Weather View 32 v60,2013-01-25 16:50:00,
2013-01-25 12:00:00,19.9,-1.1,30.18,NW,315,5.0,17.0,39,0.00,,,-99.99,Weather View 32 v60,2013-01-25 17:00:00,
2013-01-25 12:10:00,20.2,-0.8,30.18,WNW,293,3.0,17.0,39,0.00,,,-99.99,Weather View 32 v60,2013-01-25 17:10:00,
2013-01-25 12:15:00,20.4,-0.6,30.18,NW,315,7.0,14.0,39,0.00,,,-99.99,Weather View 32 v60,2013-01-25 17:15:00,
2013-01-25 12:25:00,20.7,-0.4,30.18,NNW,338,4.0,14.0,39,0.00,,,-99.99,Weather View 32 v60,2013-01-25 17:25:00,
2013-01-25 12:30:00,20.8,-0.8,30.17,WNW,293,0.0,11.0,38,0.00,,,-99.99,Weather View 32 v60,2013-01-25 17:30:00,
2013-01-25 12:39:00,20.9,-0.7,30.17,SE,135,3.0,10.0,38,0.00,,,-99.99,Weather View 32 v60,2013-01-25 17:39:00,
2013-01-25 12:45:00,21.0,-0.6,30.17,NNW,338,5.0,10.0,38,0.00,,,-99.99,Weather View 32 v60,2013-01-25 17:45:00,
2013-01-25 12:55:00,20.9,-1.9,30.16,WNW,293,5.0,11.0,36,0.00,,,-99.99,Weather View 32 v60,2013-01-25 17:55:00,
2013-01-25 13:05:00,20.8,-2.0,30.15,NW,315,6.0,11.0,36,0.00,,,-99.99,Weather View 32 v60,2013-01-25 18:05:00,
2013-01-25 13:15:00,20.8,-2.0,30.14,WNW,293,3.0,11.0,36,0.00,,,-99.99,Weather View 32 v60,2013-01-25 18:15:00,
2013-01-25 13:25:00,20.9,-2.5,30.13,NW,315,5.0,14.0,35,0.00,,,-99.99,Weather View 32 v60,2013-01-25 18:25:00,
2013-01-25 13:30:00,21.0,-2.4,30.13,WNW,293,5.0,14.0,35,0.00,,,-99.99,Weather View 32 v60,2013-01-25 18:30:00,
2013-01-25 13:35:00,21.2,-2.2,30.14,NNW,338,0.0,14.0,35,0.00,,,-99.99,Weather View 32 v60,2013-01-25 18:35:00,
2013-01-25 13:45:00,21.7,-1.2,30.13,NNW,338,5.0,14.0,36,0.00,,,-99.99,Weather View 32 v60,2013-01-25 18:45:00,
2013-01-25 13:50:00,21.8,-1.1,30.12,NNW,338,4.0,14.0,36,0.00,,,-99.99,Weather View 32 v60,2013-01-25 18:50:00,
2013-01-25 13:55:00,22.0,-0.9,30.12,WNW,293,3.0,14.0,36,0.00,,,-99.99,Weather View 32 v60,2013-01-25 18:55:00,
2013-01-25 14:05:00,22.2,-1.3,30.11,West,270,0.0,14.0,35,0.00,,,-99.99,Weather View 32 v60,2013-01-25 19:05:00,
2013-01-25 14:10:00,22.4,-0.5,30.11,North,0,5.0,14.0,36,0.00,,,-99.99,Weather View 32 v60,2013-01-25 19:10:00,
2013-01-25 14:20:00,22.7,-0.9,30.11,NW,315,2.0,14.0,35,0.00,,,-99.99,Weather View 32 v60,2013-01-25 19:20:00,
2013-01-25 14:25:00,22.8,-0.8,30.10,NNW,338,6.0,12.0,35,0.00,,,-99.99,Weather View 32 v60,2013-01-25 19:25:00,
2013-01-25 14:34:00,22.8,-1.4,30.10,WNW,293,4.0,12.0,34,0.00,,,-99.99,Weather View 32 v60,2013-01-25 19:34:00,
2013-01-25 14:40:00,22.8,-0.8,30.10,WNW,293,0.0,12.0,35,0.00,,,-99.99,Weather View 32 v60,2013-01-25 19:40:00,
2013-01-25 14:49:00,23.0,-0.6,30.10,WSW,248,0.0,10.0,35,0.00,,,-99.99,Weather View 32 v60,2013-01-25 19:49:00,
2013-01-25 14:55:00,23.1,-0.5,30.09,SW,225,1.0,10.0,35,0.00,,,-99.99,Weather View 32 v60,2013-01-25 19:55:00,
2013-01-25 15:00:00,23.2,-0.4,30.09,WNW,293,2.0,10.0,35,0.00,,,-99.99,Weather View 32 v60,2013-01-25 20:00:00,
2013-01-25 15:09:00,23.2,-0.4,30.09,WNW,293,0.0,10.0,35,0.00,,,-99.99,Weather View 32 v60,2013-01-25 20:09:00,
2013-01-25 15:15:00,23.2,-0.4,30.09,NNW,338,2.0,10.0,35,0.00,,,-99.99,Weather View 32 v60,2013-01-25 20:15:00,
2013-01-25 15:20:00,23.2,-0.4,30.08,West,270,3.0,10.0,35,0.00,,,-99.99,Weather View 32 v60,2013-01-25 20:20:00,
2013-01-25 15:30:00,23.0,-0.6,30.09,SW,225,1.0,10.0,35,0.00,,,-99.99,Weather View 32 v60,2013-01-25 20:30:00,
2013-01-25 15:40:00,22.9,-0.1,30.09,WNW,293,0.0,10.0,36,0.00,,,-99.99,Weather View 32 v60,2013-01-25 20:40:00,
2013-01-25 15:50:00,22.8,-0.2,30.09,NW,315,2.0,10.0,36,0.00,,,-99.99,Weather View 32 v60,2013-01-25 20:50:00,
2013-01-25 15:55:00,22.8,-0.2,30.09,WNW,293,1.0,10.0,36,0.00,,,-99.99,Weather View 32 v60,2013-01-25 20:55:00,
2013-01-25 16:04:00,22.6,-0.3,30.09,NNW,338,1.0,10.0,36,0.00,,,-99.99,Weather View 32 v60,2013-01-25 21:04:00,
2013-01-25 16:10:00,22.4,0.1,30.09,WNW,293,2.0,10.0,37,0.00,,,-99.99,Weather View 32 v60,2013-01-25 21:10:00,
2013-01-25 16:15:00,22.3,0.0,30.09,WNW,293,0.0,10.0,37,0.00,,,-99.99,Weather View 32 v60,2013-01-25 21:15:00,
2013-01-25 16:25:00,21.9,-0.4,30.09,SW,225,0.0,8.0,37,0.00,,,-99.99,Weather View 32 v60,2013-01-25 21:25:00,
2013-01-25 16:30:00,21.8,0.1,30.09,WNW,293,0.0,8.0,38,0.00,,,-99.99,Weather View 32 v60,2013-01-25 21:30:00,
2013-01-25 16:40:00,21.4,-0.8,30.09,WNW,293,0.0,8.0,37,0.00,,,-99.99,Weather View 32 v60,2013-01-25 21:40:00,
2013-01-25 16:45:00,21.3,-0.4,30.09,NNW,338,3.0,8.0,38,0.00,,,-99.99,Weather View 32 v60,2013-01-25 21:45:00,
2013-01-25 16:55:00,21.1,0.0,30.09,NW,315,0.0,8.0,39,0.00,,,-99.99,Weather View 32 v60,2013-01-25 21:55:00,
2013-01-25 17:00:00,21.0,-0.1,30.09,NNW,338,1.0,8.0,39,0.00,,,-99.99,Weather View 32 v60,2013-01-25 22:00:00,
2013-01-25 17:05:00,20.9,-0.2,30.09,NW,315,0.0,6.0,39,0.00,,,-99.99,Weather View 32 v60,2013-01-25 22:05:00,
2013-01-25 17:10:00,20.9,-0.2,30.10,WNW,293,0.0,7.0,39,0.00,,,-99.99,Weather View 32 v60,2013-01-25 22:10:00,
2013-01-25 17:20:00,20.8,0.3,30.10,WNW,293,0.0,7.0,40,0.00,,,-99.99,Weather View 32 v60,2013-01-25 22:20:00,
2013-01-25 17:25:00,20.7,0.2,30.10,West,270,0.0,7.0,40,0.00,,,-99.99,Weather View 32 v60,2013-01-25 22:25:00,
2013-01-25 17:35:00,20.6,0.6,30.09,WSW,248,0.0,7.0,41,0.00,,,-99.99,Weather View 32 v60,2013-01-25 22:35:00,
2013-01-25 17:40:00,20.5,0.5,30.09,West,270,0.0,7.0,41,0.00,,,-99.99,Weather View 32 v60,2013-01-25 22:40:00,
2013-01-25 17:49:00,20.4,0.4,30.09,SW,225,0.0,7.0,41,0.00,,,-99.99,Weather View 32 v60,2013-01-25 22:49:00,
2013-01-25 17:55:00,20.3,0.3,30.09,SW,225,0.0,7.0,41,0.00,,,-99.99,Weather View 32 v60,2013-01-25 22:55:00,
2013-01-25 18:04:00,20.2,0.3,30.08,NW,315,0.0,7.0,41,0.00,,,-99.99,Weather View 32 v60,2013-01-25 23:04:00,
2013-01-25 18:10:00,20.2,0.8,30.08,WNW,293,0.0,3.0,42,0.00,,,-99.99,Weather View 32 v60,2013-01-25 23:10:00,
2013-01-25 18:15:00,20.1,0.2,30.08,North,0,0.0,3.0,41,0.00,,,-99.99,Weather View 32 v60,2013-01-25 23:15:00,
2013-01-25 18:25:00,20.1,0.2,30.08,WNW,293,0.0,3.0,41,0.00,,,-99.99,Weather View 32 v60,2013-01-25 23:25:00,
2013-01-25 18:30:00,20.1,0.2,30.07,West,270,0.0,3.0,41,0.00,,,-99.99,Weather View 32 v60,2013-01-25 23:30:00,
2013-01-25 18:39:00,20.2,0.8,30.07,WSW,248,0.0,3.0,42,0.00,,,-99.99,Weather View 32 v60,2013-01-25 23:39:00,
2013-01-25 18:45:00,20.2,0.8,30.07,WNW,293,0.0,4.0,42,0.00,,,-99.99,Weather View 32 v60,2013-01-25 23:45:00,
2013-01-25 18:55:00,20.1,0.2,30.07,WNW,293,0.0,5.0,41,0.00,,,-99.99,Weather View 32 v60,2013-01-25 23:55:00,
2013-01-25 19:04:00,20.1,0.7,30.07,WNW,293,0.0,5.0,42,0.00,,,-99.99,Weather View 32 v60,2013-01-26 00:04:00,
2013-01-25 19:10:00,20.1,0.7,30.07,WNW,293,0.0,5.0,42,0.00,,,-99.99,Weather View 32 v60,2013-01-26 00:10:00,
2013-01-25 19:15:00,20.1,0.7,30.07,SSW,203,0.0,5.0,42,0.00,,,-99.99,Weather View 32 v60,2013-01-26 00:15:00,
2013-01-25 19:25:00,20.1,0.7,30.07,SSW,203,1.0,5.0,42,0.00,,,-99.99,Weather View 32 v60,2013-01-26 00:25:00,
2013-01-25 19:30:00,20.1,0.7,30.07,WNW,293,0.0,5.0,42,0.00,,,-99.99,Weather View 32 v60,2013-01-26 00:30:00,
2013-01-25 19:39:00,20.1,0.7,30.06,West,270,0.0,5.0,42,0.00,,,-99.99,Weather View 32 v60,2013-01-26 00:39:00,
2013-01-25 19:45:00,20.1,0.7,30.06,SSW,203,0.0,5.0,42,0.00,,,-99.99,Weather View 32 v60,2013-01-26 00:45:00,
2013-01-25 19:55:00,20.1,0.7,30.05,SW,225,0.0,4.0,42,0.00,,,-99.99,Weather View 32 v60,2013-01-26 00:55:00,
2013-01-25 20:04:00,20.0,0.1,30.05,SW,225,0.0,4.0,41,0.00,,,-99.99,Weather View 32 v60,2013-01-26 01:04:00,
2013-01-25 20:10:00,20.0,0.1,30.04,WSW,248,0.0,4.0,41,0.00,,,-99.99,Weather View 32 v60,2013-01-26 01:10:00,
2013-01-25 20:15:00,19.9,0.5,30.04,WSW,248,0.0,4.0,42,0.00,,,-99.99,Weather View 32 v60,2013-01-26 01:15:00,
2013-01-25 20:24:00,19.9,0.5,30.04,SW,225,0.0,4.0,42,0.00,,,-99.99,Weather View 32 v60,2013-01-26 01:24:00,
2013-01-25 20:30:00,19.9,0.5,30.04,SW,225,0.0,4.0,42,0.00,,,-99.99,Weather View 32 v60,2013-01-26 01:30:00,
2013-01-25 20:40:00,19.9,1.0,30.04,SW,225,0.0,2.0,43,0.00,,,-99.99,Weather View 32 v60,2013-01-26 01:40:00,
2013-01-25 20:49:00,19.9,1.0,30.04,WNW,293,0.0,2.0,43,0.00,,,-99.99,Weather View 32 v60,2013-01-26 01:49:00,
2013-01-25 20:55:00,19.9,0.5,30.03,West,270,0.0,2.0,42,0.00,,,-99.99,Weather View 32 v60,2013-01-26 01:55:00,
2013-01-25 21:00:00,19.9,1.0,30.03,SW,225,0.0,2.0,43,0.00,,,-99.99,Weather View 32 v60,2013-01-26 02:00:00,
2013-01-25 21:10:00,19.9,1.0,30.03,SSW,203,0.0,2.0,43,0.00,,,-99.99,Weather View 32 v60,2013-01-26 02:10:00,
2013-01-25 21:20:00,19.9,1.5,30.03,SSW,203,0.0,2.0,44,0.00,,,-99.99,Weather View 32 v60,2013-01-26 02:20:00,
2013-01-25 21:25:00,19.8,0.9,30.02,West,270,0.0,2.0,43,0.00,,,-99.99,Weather View 32 v60,2013-01-26 02:25:00,
2013-01-25 21:34:00,19.7,1.3,30.02,West,270,0.0,2.0,44,0.00,,,-99.99,Weather View 32 v60,2013-01-26 02:34:00,
2013-01-25 21:40:00,19.7,0.8,30.03,SW,225,0.0,2.0,43,0.00,,,-99.99,Weather View 32 v60,2013-01-26 02:40:00,
2013-01-25 21:45:00,19.7,0.8,30.02,South,180,0.0,2.0,43,0.00,,,-99.99,Weather View 32 v60,2013-01-26 02:45:00,
2013-01-25 21:55:00,19.6,0.2,30.02,South,180,0.0,1.0,42,0.00,,,-99.99,Weather View 32 v60,2013-01-26 02:55:00,
2013-01-25 22:00:00,19.6,0.7,30.02,South,180,0.0,1.0,43,0.00,,,-99.99,Weather View 32 v60,2013-01-26 03:00:00,
2013-01-25 22:10:00,19.6,0.7,30.02,South,180,0.0,1.0,43,0.00,,,-99.99,Weather View 32 v60,2013-01-26 03:10:00,
2013-01-25 22:20:00,19.6,0.7,30.01,WNW,293,0.0,4.0,43,0.00,,,-99.99,Weather View 32 v60,2013-01-26 03:20:00,
2013-01-25 22:25:00,19.5,1.1,30.01,WNW,293,0.0,4.0,44,0.00,,,-99.99,Weather View 32 v60,2013-01-26 03:25:00,
2013-01-25 22:35:00,19.6,2.2,30.01,SW,225,0.0,4.0,46,0.00,,,-99.99,Weather View 32 v60,2013-01-26 03:35:00,
2013-01-25 22:40:00,19.6,2.2,30.01,SSW,203,0.0,4.0,46,0.00,,,-99.99,Weather View 32 v60,2013-01-26 03:40:00,
2013-01-25 22:45:00,19.6,2.6,30.01,WSW,248,0.0,4.0,47,0.00,,,-99.99,Weather View 32 v60,2013-01-26 03:45:00,
2013-01-25 22:55:00,19.5,3.4,30.02,NW,315,1.0,4.0,49,0.00,,,-99.99,Weather View 32 v60,2013-01-26 03:55:00,
2013-01-25 23:00:00,19.5,3.9,30.02,WNW,293,3.0,4.0,50,0.00,,,-99.99,Weather View 32 v60,2013-01-26 04:00:00,
2013-01-25 23:05:00,18.6,6.7,30.01,WSW,248,0.0,4.0,59,0.00,,,-99.99,Weather View 32 v60,2013-01-26 04:05:00,
2013-01-25 23:10:00,19.4,4.6,30.02,WNW,293,0.0,4.0,52,0.00,,,-99.99,Weather View 32 v60,2013-01-26 04:10:00,
2013-01-25 23:15:00,19.3,5.0,30.02,WNW,293,0.0,4.0,53,0.00,,,-99.99,Weather View 32 v60,2013-01-26 04:15:00,
2013-01-25 23:20:00,18.4,7.6,30.00,NNE,23,0.0,4.0,62,0.00,,,-99.99,Weather View 32 v60,2013-01-26 04:20:00,
2013-01-25 23:25:00,19.2,5.3,30.02,WNW,293,0.0,4.0,54,0.00,,,-99.99,Weather View 32 v60,2013-01-26 04:25:00,
2013-01-25 23:30:00,19.1,5.6,30.01,NE,45,0.0,4.0,55,0.00,,,-99.99,Weather View 32 v60,2013-01-26 04:30:00,
2013-01-25 23:35:00,17.9,8.5,30.01,NNW,338,3.0,7.0,66,0.00,,,-99.99,Weather View 32 v60,2013-01-26 04:35:00,
2013-01-25 23:40:00,19.0,5.9,30.01,WSW,248,0.0,4.0,56,0.00,,,-99.99,Weather View 32 v60,2013-01-26 04:40:00,
2013-01-25 23:45:00,17.7,8.9,30.01,NNW,338,0.0,7.0,68,0.00,,,-99.99,Weather View 32 v60,2013-01-26 04:45:00,
2013-01-25 23:49:00,18.9,6.2,30.01,WNW,293,0.0,4.0,57,0.00,,,-99.99,Weather View 32 v60,2013-01-26 04:49:00,
2013-01-25 23:50:00,17.6,9.2,30.01,East,90,0.0,7.0,69,0.00,,,-99.99,Weather View 32 v60,2013-01-26 04:50:00,
2013-01-25 23:55:00,18.9,6.2,30.01,NNE,23,0.0,4.0,57,0.00,,,-99.99,Weather View 32 v60,2013-01-26 04:55:00,